[[{"header":{"parameterUnit":"m.s-1","parameterCategory":1,"la1":30.2991,"la2":30.254,"lo1":-89.0895,"lo2":-89.0444,"dy":0.0017,"dx":0.0017,"nx":28,"ny":28,"refTime":"2025-01-29T03:00:00:Z","depth":0,"parameterNumber":2,"parameterNumberName":"U-component_of_WINDS"},"data":[0,0,0,0,0,0,0,0,0,0,0,0,0,0,0,0,0,0,0,0,0,0,0,0,0,0,0,0,0,0,0,0,0,0,0,0,0,0,0,0,0,0,0,0,0,0,0,0,0,0,0,0,0,0,0,0,0,0,-0.9395,-0.9394,0,-0.9322,-0.9321,-0.9321,-0.9247,-0.9247,-0.9246,-0.9245,-0.9171,-0.917,-0.9169,0,0,0,0,0,0,0,0,0,0,0,0,0,-0.9474,-0.9473,-0.9395,-0.9394,-0.9393,-0.9322,-0.9321,-0.932,-0.9248,-0.9246,-0.9245,-0.9244,-0.9171,-0.917,-0.9169,0,0,0,0,0,0,0,0,0,0,0,0,0,-0.9424,-0.9473,-0.9395,-0.9348,-0.9343,-0.9323,-0.9321,-0.932,-0.9248,-0.9246,-0.9245,-0.9244,-0.9172,-0.917,-0.9169,-0.9188,0,0,-0.9164,-0.9163,0,0,0,0,0,0,0,0,-0.9427,-0.9422,-0.9356,-0.9352,-0.9346,-0.9292,-0.9322,-0.9276,-0.9248,-0.9284,-0.9245,-0.9243,-0.9213,-0.9208,-0.9197,-0.9185,-0.9182,-0.9164,-0.9163,-0.9162,-0.9162,0,0,0,0,0,0,0,-0.9431,-0.9424,-0.9366,-0.9355,-0.9349,-0.9332,-0.9323,-0.9313,-0.9258,-0.9281,-0.9275,-0.9268,-0.921,-0.9199,-0.9195,-0.9181,-0.9164,-0.9162,-0.9161,-0.9161,-0.9184,-0.9185,0,0,0,0,0,0,-0.9441,-0.9428,-0.9369,-0.9364,-0.9384,-0.9332,-0.9322,-0.9311,-0.9257,-0.9248,-0.9269,-0.9265,-0.9202,-0.9197,-0.9192,-0.9213,-0.9162,-0.9161,-0.916,-0.9182,-0.9184,-0.9186,0,0,0,0,0,0,-0.9443,-0.9437,-0.9371,-0.9394,-0.9385,-0.9332,-0.932,-0.931,-0.93,-0.9249,-0.9238,-0.9268,-0.9201,-0.9194,-0.919,-0.9209,-0.916,-0.9158,-0.918,-0.9183,-0.9185,-0.9254,0,0,0,0,0,0,-0.9446,-0.9438,-0.9444,-0.9395,-0.9384,-0.937,-0.9321,-0.931,-0.9297,-0.929,-0.9245,-0.9236,-0.9199,-0.9193,-0.9189,-0.9206,-0.9157,-0.9178,-0.9181,-0.9184,-0.9249,-0.9258,-0.9265,0,0,0,0,0,-0.9449,-0.9466,-0.9444,-0.9438,-0.939,-0.9371,-0.9365,-0.9322,-0.9299,-0.9305,-0.9273,-0.9237,-0.9208,-0.9193,-0.9188,-0.9205,-0.9177,-0.918,-0.9184,-0.9246,-0.9256,-0.9265,0,0,0,0,0,0,-0.9517,-0.9458,-0.9434,-0.9435,-0.9409,-0.9359,-0.9365,-0.9334,-0.9314,-0.9309,-0.9257,-0.9247,-0.925,-0.9227,-0.9211,-0.9223,-0.9188,-0.919,-0.9237,-0.9246,-0.9254,-0.9259,-0.9156,0,0,0,0,0,-0.9533,-0.9522,-0.9471,-0.9477,-0.9465,-0.9418,-0.9408,-0.9378,-0.9348,-0.9337,-0.9304,-0.9277,-0.9262,-0.9253,-0.9236,-0.9247,-0.9236,-0.9256,-0.9264,-0.9271,-0.9273,-0.9279,-0.9287,-0.9197,-0.9197,-0.9197,0,0,-0.9564,-0.953,-0.9526,-0.949,-0.9466,-0.9457,-0.9409,-0.9401,-0.9394,-0.9335,-0.933,-0.9306,-0.9272,-0.9276,-0.9276,-0.9257,-0.9297,-0.9275,-0.9281,-0.928,-0.9283,-0.9292,-0.93,-0.9199,-0.9199,-0.9199,0,0,-0.9616,-0.9589,-0.9592,-0.957,-0.9535,-0.9503,-0.9505,-0.946,-0.9442,-0.9435,-0.9392,-0.9384,-0.9358,-0.9337,-0.9323,-0.9372,-0.9339,-0.9368,-0.9409,-0.9415,-0.9423,-0.9429,-0.9447,-0.9454,-0.9371,-0.9371,-0.9371,0,-0.9659,-0.9643,-0.9598,-0.9593,-0.9579,-0.9527,-0.9531,-0.9511,-0.9473,-0.9465,-0.9445,-0.9413,-0.9387,-0.9386,-0.9399,-0.9389,-0.9389,-0.9372,-0.9425,-0.9431,-0.9436,-0.9453,-0.9459,-0.9375,-0.9375,-0.9374,-0.9374,0,-0.9699,-0.9689,-0.9696,-0.966,-0.9647,-0.9647,-0.9603,-0.9595,-0.9567,-0.9539,-0.9535,-0.9502,-0.9479,-0.9477,-0.9449,-0.9473,-0.9462,-0.9435,-0.9398,-0.9449,-0.9464,-0.947,-0.938,-0.9379,-0.9378,-0.9377,0,0,-0.9789,-0.9731,-0.9734,-0.9718,-0.9677,-0.9669,-0.9668,-0.9645,-0.964,-0.9616,-0.9614,-0.9596,-0.9571,-0.9555,-0.9525,-0.953,-0.9573,-0.9502,-0.95,-0.9516,-0.9599,-0.962,-0.9628,-0.9551,-0.9552,-0.9553,-0.9602,0,-0.9834,-0.9827,-0.9788,-0.9793,-0.9784,-0.9737,-0.9735,-0.9711,-0.9686,-0.9675,-0.9647,-0.9635,-0.9602,-0.9593,-0.9596,-0.9567,-0.9588,-0.9563,-0.955,-0.955,-0.9559,-0.9635,-0.9656,-0.9703,-0.9607,-0.9608,-0.9609,0,-0.9885,-0.9865,-0.987,-0.9831,-0.9826,-0.9825,-0.9803,-0.9793,-0.9766,-0.9747,-0.9731,-0.9698,-0.9695,-0.9662,-0.9659,-0.9642,-0.9635,-0.962,-0.9621,-0.9618,-0.9582,-0.9634,-0.9717,-0.9724,-0.9617,-0.9617,-0.9616,0,-0.9951,-0.9926,-0.9925,-0.9914,-0.9868,-0.9869,-0.9851,-0.9821,-0.9811,-0.9793,-0.9786,-0.9767,-0.9757,-0.9744,-0.9707,-0.9686,-0.9708,-0.9672,-0.9693,-0.9694,-0.9699,-0.9699,-0.9782,-0.9695,-0.9695,-0.9695,-0.9695,0,-1.0005,-1.001,-0.9955,-0.9955,-0.9959,-0.9916,-0.9922,-0.9899,-0.9874,-0.9869,-0.9828,-0.9825,-0.9776,-0.9768,-0.974,-0.9742,-0.9737,-0.9723,-0.9715,-0.9726,-0.9728,-0.972,-0.9716,-0.9697,-0.9696,-0.9696,-0.9696,0,-1.0079,-1.0043,-1.0039,-0.9998,-0.9987,-0.9993,-0.9958,-0.9956,-0.993,-0.9925,-0.9921,-0.9879,-0.9868,-0.983,-0.9809,-0.979,-0.9802,-0.9787,-0.9811,-0.9806,-0.9829,-0.9828,-0.991,-0.9919,-0.9827,-0.9828,-0.9829,0,-1.0116,-1.0118,-1.0078,-1.0072,-1.0055,-1.0046,-1.0036,-0.9995,-0.9986,-0.9957,-0.996,-0.9945,-0.9931,-0.9916,-0.9884,-0.9869,-0.9853,-0.9883,-0.985,-0.9862,-0.9854,-0.9854,-0.9855,-0.989,-0.9891,-0.9892,-0.9893,0,-1.0185,-1.0167,-1.0154,-1.0136,-1.0125,-1.0109,-1.009,-1.0088,-1.0042,-1.0035,-1.0023,-1.0012,-0.9992,-0.9979,-0.9959,-0.994,-0.991,-0.9904,-0.9908,-0.9919,-0.9933,-0.9926,-0.983,-0.9902,-0.9901,-0.99,-0.99,-0.9899,-1.0241,-1.0242,-1.0214,-1.0202,-1.0184,-1.0168,-1.0165,-1.0139,-1.0129,-1.0109,-1.0085,-1.0077,-1.0052,-1.0022,-1.0007,-1.0,-0.9983,-0.9989,-0.9991,-0.9993,-0.9998,-0.9935,-0.9997,-0.9996,-0.9996,-0.9996,-0.9996,0,-1.0308,-1.0289,-1.0278,-1.0254,-1.0245,-1.0217,-1.0196,-1.019,-1.0183,-1.0163,-1.015,-1.0138,-1.0126,-1.0095,-1.008,-1.0081,-1.0066,-1.0078,-1.0077,-1.0074,-1.0014,-1.0012,-1.009,-1.009,-1.009,-1.009,-1.009,-1.009,-1.0342,-1.0343,-1.0323,-1.0315,-1.0295,-1.0287,-1.0277,-1.0263,-1.0246,-1.0235,-1.0224,-1.0204,-1.018,-1.0163,-1.0152,-1.0143,-1.0139,-1.0156,-1.0143,-1.0087,-1.0078,-1.0069,-1.0067,-1.0156,-1.0156,-1.0203,-1.0204,-1.0204]},{"header":{"parameterUnit":"m.s-1","parameterCategory":1,"la1":30.2991,"la2":30.254,"lo1":-89.0895,"lo2":-89.0444,"dy":0.0017,"dx":0.0017,"nx":28,"ny":28,"refTime":"2025-01-29T03:00:00:Z","depth":0,"parameterNumber":3,"parameterNumberName":"V-component_of_WINDS"},"data":[0,0,0,0,0,0,0,0,0,0,0,0,0,0,0,0,0,0,0,0,0,0,0,0,0,0,0,0,0,0,0,0,0,0,0,0,0,0,0,0,0,0,0,0,0,0,0,0,0,0,0,0,0,0,0,0,0,0,1.3171,1.3172,0,1.3216,1.3216,1.3217,1.3267,1.3268,1.3269,1.327,1.3314,1.3315,1.3315,0,0,0,0,0,0,0,0,0,0,0,0,0,1.3129,1.3129,1.3171,1.3172,1.3172,1.3216,1.3216,1.3217,1.3267,1.3268,1.3269,1.327,1.3314,1.3315,1.3315,0,0,0,0,0,0,0,0,0,0,0,0,0,1.3157,1.3129,1.3171,1.3203,1.3206,1.3216,1.3216,1.3217,1.3267,1.3268,1.3269,1.327,1.3314,1.3314,1.3315,1.3297,0,0,1.3317,1.3318,0,0,0,0,0,0,0,0,1.3156,1.3159,1.3197,1.32,1.3204,1.3237,1.3218,1.3244,1.3267,1.3244,1.327,1.3271,1.3288,1.329,1.3296,1.3299,1.3301,1.3317,1.3318,1.3318,1.3318,0,0,0,0,0,0,0,1.3154,1.3157,1.3189,1.3198,1.3202,1.3214,1.322,1.3223,1.3259,1.3246,1.325,1.3254,1.329,1.3296,1.3298,1.3302,1.3317,1.3318,1.3319,1.3319,1.3293,1.3292,0,0,0,0,0,0,1.3147,1.3155,1.3187,1.319,1.3182,1.3214,1.322,1.3225,1.3259,1.3265,1.3253,1.3257,1.3294,1.3297,1.33,1.3281,1.3318,1.3319,1.3319,1.3294,1.3293,1.3292,0,0,0,0,0,0,1.3146,1.3149,1.3186,1.3174,1.3179,1.3214,1.3219,1.3226,1.3232,1.3265,1.3271,1.3253,1.3295,1.3299,1.3298,1.3284,1.3319,1.332,1.3296,1.3294,1.3293,1.3244,0,0,0,0,0,0,1.3144,1.3149,1.3142,1.3173,1.318,1.3183,1.3218,1.3226,1.3233,1.3238,1.3266,1.3272,1.3296,1.3296,1.3298,1.3285,1.332,1.3297,1.3295,1.3293,1.3247,1.3241,1.3236,0,0,0,0,0,1.3143,1.3126,1.3142,1.3145,1.3172,1.3182,1.3186,1.3215,1.3232,1.3226,1.3247,1.3271,1.3285,1.3296,1.3299,1.3285,1.3298,1.3296,1.3293,1.325,1.3243,1.3236,0,0,0,0,0,0,1.3092,1.3131,1.3148,1.3142,1.3158,1.3191,1.3184,1.3206,1.3217,1.3221,1.3256,1.3262,1.3257,1.3271,1.3283,1.327,1.3295,1.3293,1.3261,1.3254,1.3249,1.3246,1.3321,0,0,0,0,0,1.308,1.3085,1.3119,1.3109,1.3117,1.3149,1.3154,1.3175,1.3193,1.32,1.3222,1.3238,1.3247,1.3251,1.3261,1.325,1.3257,1.3242,1.3237,1.3232,1.3229,1.3226,1.322,1.3284,1.3284,1.3284,0,0,1.3055,1.3077,1.3078,1.31,1.3115,1.3119,1.3154,1.3157,1.316,1.3201,1.3202,1.3218,1.3239,1.3233,1.3231,1.3245,1.3214,1.3229,1.3224,1.3225,1.3222,1.3216,1.3211,1.3282,1.3282,1.3283,0,0,1.3013,1.3029,1.3024,1.3039,1.3062,1.3084,1.3082,1.3112,1.3124,1.3126,1.3156,1.3161,1.3174,1.3188,1.3197,1.3161,1.3184,1.3163,1.3133,1.3129,1.3124,1.312,1.3107,1.3102,1.3161,1.316,1.316,0,1.2979,1.2987,1.3018,1.302,1.3028,1.3066,1.3061,1.3074,1.3098,1.3104,1.3118,1.3137,1.3153,1.3152,1.3143,1.3149,1.3149,1.316,1.3122,1.3118,1.3115,1.3103,1.3098,1.3158,1.3158,1.3158,1.3159,0,1.2944,1.2949,1.2942,1.2966,1.2974,1.2972,1.3003,1.3008,1.3028,1.3048,1.3049,1.3071,1.3086,1.3087,1.3106,1.3089,1.3096,1.3116,1.3141,1.3106,1.3095,1.3091,1.3154,1.3155,1.3156,1.3156,0,0,1.287,1.2912,1.2909,1.2921,1.295,1.2954,1.2954,1.2969,1.2973,1.2989,1.299,1.3001,1.302,1.303,1.3051,1.3047,1.3018,1.3068,1.3069,1.3058,1.3,1.2985,1.298,1.3033,1.3033,1.3032,1.2999,0,1.2833,1.2835,1.2864,1.2859,1.2864,1.29,1.29,1.2918,1.2936,1.2944,1.2964,1.2972,1.2996,1.3002,1.3,1.3022,1.3007,1.3025,1.3035,1.3035,1.3028,1.2974,1.2959,1.2926,1.2995,1.2994,1.2994,0,1.2789,1.2804,1.2799,1.2829,1.2832,1.2831,1.2848,1.2855,1.2876,1.289,1.2901,1.2926,1.2928,1.2952,1.2956,1.2967,1.2973,1.2984,1.2984,1.2986,1.3012,1.2975,1.2916,1.2912,1.2988,1.2988,1.2989,0,1.2737,1.2755,1.2754,1.2763,1.2798,1.2797,1.2811,1.2833,1.2841,1.2855,1.2861,1.2875,1.2883,1.2893,1.2921,1.2936,1.2922,1.2948,1.2934,1.2933,1.2929,1.2929,1.287,1.2932,1.2932,1.2932,1.2932,0,1.2692,1.2688,1.2731,1.2731,1.2727,1.2761,1.2756,1.2774,1.2793,1.2797,1.2829,1.2832,1.2869,1.2876,1.2898,1.2898,1.2901,1.2912,1.2918,1.291,1.2908,1.2914,1.2917,1.2931,1.2931,1.2932,1.2932,0,1.2632,1.2661,1.2663,1.2696,1.2705,1.27,1.2729,1.273,1.2751,1.2756,1.2758,1.2791,1.2802,1.2831,1.2848,1.2863,1.2857,1.2867,1.285,1.2853,1.2838,1.2839,1.2781,1.2776,1.284,1.2839,1.2839,0,1.2602,1.26,1.2633,1.2638,1.2651,1.2659,1.2667,1.27,1.2708,1.2732,1.273,1.2743,1.2755,1.277,1.2795,1.2809,1.282,1.2799,1.2822,1.2814,1.2821,1.2821,1.2821,1.2794,1.2793,1.2792,1.2792,0,1.2546,1.256,1.2571,1.2587,1.2597,1.2611,1.2626,1.2629,1.2666,1.2672,1.2684,1.2693,1.2711,1.2724,1.2742,1.2756,1.278,1.2784,1.2782,1.2773,1.2763,1.2769,1.2836,1.2785,1.2786,1.2786,1.2787,1.2787,1.25,1.25,1.2524,1.2535,1.2551,1.2565,1.2568,1.259,1.26,1.2618,1.2637,1.2646,1.2668,1.2694,1.2707,1.2715,1.2728,1.2724,1.2723,1.2722,1.2718,1.2762,1.2718,1.2719,1.2719,1.2719,1.2719,0,1.2446,1.2463,1.2473,1.2495,1.2504,1.2526,1.2545,1.2551,1.2559,1.2578,1.2589,1.2603,1.2615,1.2642,1.2657,1.2658,1.2669,1.2661,1.2661,1.2664,1.2706,1.2707,1.2651,1.2651,1.2651,1.2651,1.2651,1.2651,1.2419,1.242,1.2438,1.2448,1.2465,1.2475,1.2484,1.2497,1.2512,1.2526,1.2537,1.2554,1.2576,1.2593,1.2606,1.2613,1.2618,1.2606,1.2617,1.2655,1.2661,1.2667,1.2668,1.2606,1.2606,1.2575,1.2575,1.2574]}]]